Location: Newark
(43.4306°N, 0.3089°E)
Time: 06:13:48
(UTC+00:00)

S-56A Canister/Altair - Pass Details

Date: 19 August 2019
Orbit: 633 x 2499 km, 38.9° (Epoch: 15 September)

Event Time Altitude Azimuth Distance (km) Brightness Sun altitude
Rises 04:23:38 0° 268° (W) 3,532 - -8.2°
Exits shadow 04:26:29 - 251° (WSW) 2,907 9.8 -7.8°
Reaches altitude 10° 04:26:52 10° 248° (WSW) 2,845 9.7 -7.7°
Maximum altitude 04:31:11 17° 210° (SSW) 2,686 9.8 -7.0°
Drops below altitude 10° 04:36:33 10° 173° (S) 3,661 10.8 -6.1°
Sets 04:41:37 0° 156° (SSE) 5,051 11.7 -5.3°
